SCP
0 0 0 0 0 0 0 0 0 0 0 0 0 0 0 0 0 0 0 0 0 0 0 0 0 0 0 0 0 0 0 0 0 0 0 0 0 0 0 0 0 0 0
0 0 0 0 0 0 0 0 0 0 0 0 0 0 0 0 0 0 0 0 0 0 0 0 0 0 0 0 0 0 0 0 0 0 0 0 0 0 0 0 0 0 0
0 0 0 0 0 0 0 0 0 0 0 0 0 0 0 0 0 0 0 0 0 0 0 0 0 0 0 0 0 0 0 0 0 0 0 0 0 0 0 0 0 0 0
0 0 0 0 0 0 0 0 0 0 0 0 0 0 0 0 0 0 0 0 0 0 0 0 0 0 0 0 0 0 0 0 0 0 0 0 0 0 0 0 0 0 0
0 0 0 0 0 0 0 0 0 0 0 0 0 0 0 0 0 0 0 0 0 0 0 0 0 0 0 0 0 0 0 0 0 0 0 0 0 0 0 0 0 0 0
0 0 0 0 0 0 0 0 0 0 0 0 0 0 0 0 0 0 0 0 0 0 0 0 0 0 0 0 0 0 0 0 0 0 0 0 0 0 0 0 0 0 0
0 0 0 0 0 0 0 0 0 0 0 0 0 0 0 0 0 0 0 0 0 0 0 0 0 0 0 0 0 0 0 0 0 0 0 0 0 0 0 0 0 0 0
0 0 0 0 0 0 0 0 0 0 0 0 0 0 0 0 0 0 0 0 0 0 0 0 0 0 0 0 0 0 0 0 0 0 0 0 0 0 0 0 0 0 0
0 0 0 0 0 0 0 0 0 0 0 0 0 0 0 0 0 0 0 0 0 0 0 0 0 0 0 0 0 0 0 0 0 0 0 0 0 0 0 0 0 0 0
0 0 0 0 0 0 0 0 0 0 0 0 0 0 0 0 0 0 0 0 0 0 0 0 0 0 0 0 0 0 0 0 0 0 0 0 0 0 0 0 0 0 0
0 0 0 0 0 0 0 0 0 0 0 0 0 0 0 0 0 0 0 0 0 0 0 0 0 0 0 0 0 0 0 0 0 0 0 0 0 0 0 0 0 0 0
0 0 0 0 0 0 0 0 0 0 0 0 0 0 0 0 0 0 0 0 0 0 0 0 0 0 0 0 0 0 0 0 0 0 0 0 0 0 0 0 0 0 0
0 0 0 0 0 0 0 0 0 0 0 0 0 0 0 0 0 0 0 0 0 0 0 0 0 0 0 0 0 0 0 0 0 0 0 0 0 0 0 0 0 0 0
0 0 0 0 0 0 0 0 0 0 0 0 0 0 0 0 0 0 0 0 0 0 0 0 0 0 0 0 0 0 0 0 0 0 0 0 0 0 0 0 0 0 0
0 0 0 0 0 0 0 0 0 0 0 0 0 0 0 0 0 0 0 0 0 0 0 0 0 0 0 0 0 0 0 0 0 0 0 0 0 0 0 0 0 0 0
0 0 0 0 0 0 0 0 0 0 0 0 0 0 0 0 0 0 0 0 0 0 0 0 0 0 0 0 0 0 0 0 0 0 0 0 0 0 0 0 0 0 0
0 0 0 0 0 0 0 0 0 0 0 0 0 0 0 0 0 0 0 0 0 0 0 0 0 0 0 0 0 0 0 0 0 0 0 0 0 0 0 0 0 0 0
0 0 0 0 0 0 0 0 0 0 0 0 0 0 0 0 0 0 0 0 0 0 0 0 0 0 0 0 0 0 0 0 0 0 0 0 0 0 0 0 0 0 0
0 0 0 0 0 0 0 0 0 0 0 0 0 0 0 0 0 0 0 0 0 0 0 0 0 0 0 0 0 0 0 0 0 0 0 0 0 0 0 0 0 0 0
0 0 0 0 0 0 0 0 0 0 0 0 0 0 0 0 0 0 0 0 0 0 0 0 0 0 0 0 0 0 0 0 0 0 0 0 0 0 0 0 0 0 0
0 0 0 0 0 0 0 0 0 0 0 0 0 0 0 0 0 0 0 0 0 0 0 0 0 0 0 0 0 0 0 0 0 0 0 0 0 0 0 0 0 0 0
0 0 0 0 0 0 0 0 0 0 0 0 0 0 0 0 0 0 0 0 0 0 0 0 0 0 0 0 0 0 0 0 0 0 0 0 0 0 0 0 0 0 0
0 0 0 0 0 0 0 0 0 0 0 0 0 0 0 0 0 0 0 0 0 0 0 0 0 0 0 0 0 0 0 0 0 0 0 0 0 0 0 0 0 0 0
0 0 0 0 0 0 0 0 0 0 0 0 0 0 0 0 0 0 0 0 0 0 0 0 0 0 0 0 0 0 0 0 0 0 0 0 0 0 0 0 0 0 0
0 0 0 0 0 0 0 0 0 0 0 0 0 0 0 0 0 0 0 0 0 0 0 0 0 0 0 0 0 0 0 0 0 0 0 0 0 0 0 0 0 0 0
0 0 0 0 0 0 0 0 0 0 0 0 0 0 0 0 0 0 0 0 0 0 0 0 0 0 0 0 0 0 0 0 0 0 0 0 0 0 0 0 0 0 0
Wind_Speed
9 9 9 8 8 8 8 8 7 7 7 7 7 7 7 7 6 6 5 4 4 4 4 4 5 4 3 3 4 4 4 5 9 9 7 8 10 12 12 11 11 11 11
9 10 9 9 9 9 9 8 8 8 7 7 7 7 7 6 5 5 5 5 5 5 5 5 6 5 6 5 4 5 6 6 7 12 10 9 11 12 12 13 11 10 10
9 10 10 10 9 9 8 8 8 8 7 7 6 6 6 5 5 4 4 3 4 4 5 6 7 6 7 6 7 7 6 7 7 9 11 9 9 10 11 11 12 10 11
10 11 10 9 8 8 8 8 7 7 6 6 5 5 4 4 3 3 3 4 4 5 6 6 7 7 8 8 7 8 7 8 9 9 10 9 9 9 8 9 9 8 9
10 10 9 8 8 8 8 7 6 6 6 5 5 4 3 2 2 3 3 4 5 7 7 7 7 11 12 9 8 8 8 8 8 8 9 8 8 8 7 7 9 8 9
9 9 8 8 8 7 7 6 6 6 5 5 4 3 3 3 5 6 5 4 6 7 8 9 9 9 11 14 15 15 14 11 10 9 8 9 10 9 8 7 8 8 6
8 8 8 7 7 6 6 6 6 5 5 5 4 4 3 4 6 8 10 6 7 7 8 8 7 8 11 8 11 15 14 16 15 11 10 10 11 10 9 9 8 8 8
8 7 6 6 6 5 6 6 5 4 4 3 4 4 3 5 8 9 11 7 7 8 8 8 9 10 9 10 10 11 10 11 12 9 9 10 10 9 9 8 8 8 8
6 6 5 5 5 5 6 5 3 3 4 3 3 4 4 5 8 10 10 7 7 9 9 9 9 9 12 13 11 10 11 10 11 12 13 12 13 12 9 6 6 6 6
5 4 5 5 5 5 4 4 3 3 3 3 4 4 5 5 9 10 11 6 7 8 9 9 10 10 14 14 9 9 10 10 10 11 10 9 8 8 9 6 6 6 5
4 5 5 4 4 4 4 3 3 3 4 4 5 5 5 6 8 11 13 7 7 8 7 7 8 13 15 15 11 8 10 12 9 8 7 7 6 5 5 5 5 5 5
4 4 4 3 3 3 4 3 3 3 4 4 5 6 5 6 7 10 14 12 10 7 7 7 8 14 15 14 10 11 13 10 6 6 6 5 5 5 6 6 6 5 5
3 3 3 3 3 2 2 2 2 2 2 3 4 5 6 6 7 11 12 14 15 8 7 11 13 13 12 9 11 13 10 6 5 6 6 5 5 6 6 5 6 5 5
3 2 2 2 2 2 1 1 0 1 1 2 3 5 6 6 6 8 8 8 11 9 8 10 12 11 9 9 9 8 6 6 5 5 6 6 5 5 5 5 4 5 5
2 1 1 1 0 1 1 1 2 2 3 2 3 4 5 6 8 12 8 7 7 7 8 5 5 7 7 8 8 7 6 6 6 5 5 6 6 6 5 5 5 5 5
1 0 0 1 1 1 2 3 3 3 4 4 4 5 5 6 11 12 12 12 12 12 6 5 6 7 7 7 8 7 7 7 6 6 5 5 6 6 6 5 5 5 6
1 1 1 1 1 1 1 2 3 4 5 5 6 7 7 10 10 11 12 12 9 9 5 5 6 6 7 7 7 7 7 7 6 6 6 5 5 5 5 6 6 6 6
2 3 2 1 1 1 1 1 1 2 3 4 5 7 10 11 10 10 11 9 6 6 5 6 6 6 7 7 7 7 7 7 6 6 5 5 5 5 5 6 6 8 7
3 2 2 1 1 1 1 0 1 1 2 3 4 5 8 9 9 8 8 5 5 5 6 6 6 6 7 7 7 7 7 7 7 6 5 6 5 5 6 6 6 9 8
2 3 3 2 1 0 0 0 0 1 1 3 4 4 6 5 5 6 5 5 5 5 6 6 6 6 7 7 7 7 7 7 8 6 6 5 5 4 6 7 7 7 7
1 1 1 1 1 0 0 0 1 1 1 2 3 4 7 4 5 6 5 5 5 5 6 6 6 6 7 7 7 8 9 7 6 6 6 6 5 5 6 6 7 7 7
0 0 1 1 1 1 1 1 1 1 1 2 3 4 7 5 5 5 5 5 5 5 5 5 5 5 6 6 7 7 7 7 7 6 6 5 5 5 6 7 7 7 7
2 2 2 2 2 3 3 2 2 1 1 2 3 4 5 5 5 5 6 6 6 5 5 5 6 6 6 6 5 5 6 6 6 6 5 4 4 4 5 6 8 8 8
3 3 3 3 3 3 3 2 2 2 2 3 3 4 4 5 5 6 6 6 6 6 6 6 6 8 11 8 6 6 5 6 6 4 4 2 3 3 3 4 5 6 7
3 3 3 3 2 2 3 3 3 3 3 3 4 4 5 5 6 6 6 6 7 7 8 7 6 8 11 12 10 9 10 9 7 4 2 2 4 4 4 4 4 4 4
3 4 3 3 2 2 3 3 3 3 3 3 4 4 4 5 5 6 6 7 7 7 8 7 10 11 12 10 11 12 10 9 8 7 3 3 5 5 4 4 5 4 4
Wind_Direction
78 79 80 80 82 86 86 86 88 87 89 90 89 86 83 78 76 78 72 57 47 27 10 354 332 318 308 305 295 283 273 268 285 294 283 280 278 280 285 284 280 277 274
81 82 80 80 81 81 80 80 83 82 82 89 94 95 93 86 79 76 63 48 32 9 350 337 325 321 312 301 292 285 280 271 276 294 298 293 284 283 281 280 281 277 274
83 83 80 78 80 80 79 78 80 84 85 89 94 96 93 88 78 69 58 35 11 345 328 318 312 311 303 296 290 284 280 281 276 286 293 292 288 285 285 281 281 278 278
83 83 80 78 80 81 80 78 79 84 87 86 87 89 86 79 70 49 27 6 345 329 318 308 302 297 289 289 288 284 285 287 285 284 288 291 289 287 280 285 289 284 281
83 83 83 82 81 80 78 76 74 76 82 84 81 70 58 59 45 26 1 344 331 324 320 314 306 304 305 304 304 302 298 292 291 289 290 293 295 296 291 286 289 292 284
84 85 84 83 81 80 78 75 71 67 66 67 60 52 39 36 24 17 2 337 326 320 317 316 312 306 311 314 313 311 308 303 301 296 295 297 299 298 294 290 291 294 290
80 82 81 82 80 74 77 71 65 60 59 56 45 42 33 12 15 5 354 344 323 314 311 310 311 310 314 308 309 310 306 301 297 296 297 300 299 300 297 294 290 291 290
77 77 81 83 80 73 69 64 56 52 51 42 36 30 20 6 6 359 349 341 322 316 311 306 305 308 311 316 313 307 304 302 298 296 288 290 293 295 293 293 293 292 285
76 77 78 82 79 69 63 55 46 51 45 36 26 17 8 347 348 349 352 335 328 324 320 317 316 314 313 318 318 312 309 307 307 302 296 293 294 296 298 300 300 301 304
74 77 73 76 79 74 67 58 47 55 46 33 22 7 354 338 336 344 350 339 332 329 324 323 323 319 318 320 317 309 309 311 312 312 310 306 303 301 302 298 299 300 303
78 76 71 74 83 83 72 60 59 56 43 26 10 351 346 340 338 342 348 346 331 323 321 322 319 319 319 319 318 307 303 307 307 307 310 310 310 310 312 310 299 294 296
83 78 70 66 77 90 86 69 56 51 40 18 0 352 345 341 340 340 341 341 337 321 315 315 313 317 319 321 322 318 318 320 319 321 322 324 328 330 324 319 310 300 286
93 86 79 73 68 80 92 82 53 40 31 3 356 351 343 340 339 340 339 337 338 334 317 318 321 323 328 328 326 328 331 335 334 339 339 338 334 329 328 326 325 321 308
114 103 90 81 65 53 59 76 66 346 346 345 346 343 338 336 341 345 339 334 334 335 328 322 324 328 336 333 333 338 341 341 339 341 340 338 337 342 347 344 338 340 341
107 96 74 66 22 344 331 269 257 250 243 287 312 318 328 333 331 329 331 330 329 325 322 328 344 344 347 345 342 342 343 347 349 347 348 352 352 356 355 349 349 349 355
121 107 310 303 312 315 322 323 303 289 305 303 300 306 308 308 320 331 337 337 338 339 346 349 346 344 344 342 341 342 345 349 347 349 355 357 1 3 2 360 2 7 10
199 234 250 261 270 287 306 325 329 340 356 360 349 344 338 334 338 341 342 339 344 354 1 350 345 343 341 340 341 343 344 344 345 355 360 359 2 7 8 10 11 15 19
233 239 233 242 245 255 270 293 310 329 339 338 337 334 339 341 342 346 347 349 355 360 354 347 344 341 339 341 343 344 343 344 348 356 360 2 8 14 18 22 22 22 23
245 240 231 231 239 240 247 319 1 355 344 332 334 337 340 339 339 348 356 1 348 348 347 345 342 339 339 341 343 345 345 345 347 351 357 1 7 17 27 31 33 26 28
262 254 211 198 221 232 170 133 51 38 6 348 345 343 340 344 351 349 353 350 348 346 344 342 340 340 339 341 343 344 346 348 350 353 354 357 5 18 30 37 40 39 36
270 284 177 155 152 137 99 104 112 99 11 349 340 342 355 351 349 347 349 349 348 344 342 339 338 340 341 341 342 343 344 346 349 350 354 360 12 28 36 42 46 51 51
190 109 97 105 101 93 94 91 104 97 11 354 346 348 356 2 356 352 350 349 345 341 339 336 335 338 338 335 335 336 337 341 345 347 349 358 17 37 47 53 55 55 58
87 89 81 73 76 84 81 73 74 62 32 7 357 360 1 0 358 356 352 349 347 347 348 347 344 343 340 331 326 325 324 325 324 321 328 348 21 43 54 61 64 66 64
78 82 82 76 75 77 78 72 63 57 44 28 17 10 3 358 356 356 353 349 348 351 353 353 349 343 343 339 331 327 323 317 312 303 312 349 35 54 65 69 70 75 75
71 74 74 72 76 82 83 77 66 57 48 34 21 11 4 1 358 356 354 352 350 352 355 356 351 345 342 340 340 336 329 329 337 341 354 37 54 60 69 76 80 85 83
69 71 71 71 74 79 85 82 71 63 50 36 24 14 7 2 357 354 354 354 351 350 352 352 350 350 347 344 340 337 336 346 357 6 25 54 56 56 64 72 81 84 85